EW8542 Weather Reports


time (UTC)temp
C
wind
direction
speed
KPH
gust
KPH
rain 1hr
cm
rain 24hr
cm
rain mn
cm
humidity
%
barometer
mb
20260507160705 15 116 8.0 16.1 0.00 0.00 0.00 45 1016.5
20260507160205 15 114 9.7 19.3 0.00 0.00 0.00 44 1016.5
20260507155706 15 112 4.8 12.9 0.00 0.00 0.00 44 1016.5
20260507155204 15 129 6.4 12.9 0.00 0.00 0.00 42 1016.4
20260507154705 15 145 8.0 14.5 0.00 0.00 0.00 42 1016.4
20260507154205 15 97 8.0 12.9 0.00 0.00 0.00 44 1016.4
20260507153705 15 132 9.7 14.5 0.00 0.00 0.00 44 1016.5
20260507153205 15 106 6.4 14.5 0.00 0.00 0.00 44 1016.5
20260507152705 15 138 4.8 9.7 0.00 0.00 0.00 44 1016.4
20260507152205 15 152 8.0 14.5 0.00 0.00 0.00 44 1016.5
20260507150705 15 180 6.4 14.5 0.00 0.00 0.00 45 1016.4
20260507150205 15 132 4.8 19.3 0.00 0.00 0.00 43 1016.4
20260507145704 15 122 8.0 19.3 0.00 0.00 0.00 43 1016.4
20260507145205 15 109 9.7 16.1 0.00 0.00 0.00 42 1016.4
20260507144705 15 75 8.0 14.5 0.00 0.00 0.00 42 1016.3
20260507144205 15 108 9.7 16.1 0.00 0.00 0.00 40 1016.4
20260507143705 15 111 11.3 19.3 0.00 0.00 0.00 41 1016.4
20260507142205 15 117 6.4 16.1 0.00 0.00 0.00 41 1016.3
20260507141205 15 82 8.0 12.9 0.00 0.00 0.00 41 1016.3
20260507140205 15 93 9.7 19.3 0.00 0.00 0.00 43 1016.3
20260507135705 15 81 11.3 19.3 0.00 0.00 0.00 43 1016.4
20260507134705 15 109 11.3 16.1 0.00 0.00 0.00 43 1016.4
20260507134205 15 122 6.4 19.3 0.00 0.00 0.00 42 1016.4
20260507133205 15 94 9.7 19.3 0.00 0.00 0.00 43 1016.4
20260507132705 15 60 11.3 20.9 0.00 0.00 0.00 41 1016.4
20260507131705 16 75 8.0 16.1 0.00 0.00 0.00 41 1016.4
20260507131205 15 87 9.7 16.1 0.00 0.00 0.00 43 1016.3
20260507130705 15 110 11.3 19.3 0.00 0.00 0.00 42 1016.3
20260507130205 15 89 11.3 20.9 0.00 0.00 0.00 42 1016.3
20260507125705 15 98 11.3 19.3 0.00 0.00 0.00 41 1016.3
20260507124705 16 100 8.0 19.3 0.00 0.00 0.00 41 1016.2
20260507122706 15 125 8.0 16.1 0.00 0.00 0.00 40 1016.2
20260507122205 15 79 9.7 16.1 0.00 0.00 0.00 43 1016.1
20260507121705 15 112 11.3 19.3 0.00 0.00 0.00 41 1016.1
20260507120706 15 121 9.7 19.3 0.00 0.00 0.00 41 1016.1
20260507120205 15 99 12.9 19.3 0.00 0.00 0.00 41 1016.1
20260507115705 15 85 11.3 19.3 0.00 0.00 0.00 42 1016.1
20260507115205 15 77 8.0 16.1 0.00 0.00 0.00 42 1016.0
20260507114205 15 90 11.3 19.3 0.00 0.00 0.00 42 1015.9
20260507113705 15 113 11.3 19.3 0.00 0.00 0.00 42 1016.0
20260507113205 15 99 8.0 14.5 0.00 0.00 0.00 42 1016.0
20260507112705 15 84 9.7 16.1 0.00 0.00 0.00 45 1016.0
20260507112205 15 90 9.7 19.3 0.00 0.00 0.00 44 1016.0
20260507111705 15 117 8.0 19.3 0.00 0.00 0.00 45 1016.0
20260507111205 15 91 8.0 14.5 0.00 0.00 0.00 45 1016.0
20260507110705 15 84 4.8 14.5 0.00 0.00 0.00 46 1016.0
20260507105705 15 125 8.0 19.3 0.00 0.00 0.00 45 1016.0
20260507105205 15 116 9.7 12.9 0.00 0.00 0.00 45 1016.0
20260507104705 15 109 9.7 20.9 0.00 0.00 0.00 45 1016.0
20260507104205 15 117 8.0 19.3 0.00 0.00 0.00 43 1015.9
20260507103705 15 113 4.8 11.3 0.00 0.00 0.00 45 1016.0
20260507103205 15 102 8.0 19.3 0.00 0.00 0.00 41 1016.0
20260507102705 15 84 9.7 20.9 0.00 0.00 0.00 43 1016.0
20260507102205 14 77 9.7 16.1 0.00 0.00 0.00 39 1015.9
20260507101205 15 86 4.8 16.1 0.00 0.00 0.00 41 1015.9
20260507100705 15 147 9.7 16.1 0.00 0.00 0.00 43 1015.9
20260507100205 15 94 4.8 12.9 0.00 0.00 0.00 44 1015.8
20260507095705 14 110 6.4 16.1 0.00 0.00 0.00 37 1015.8
20260507095205 14 65 4.8 12.9 0.00 0.00 0.00 42 1015.8
20260507094705 14 131 4.8 12.9 0.00 0.00 0.00 43 1015.8
20260507094205 14 89 8.0 14.5 0.00 0.00 0.00 45 1015.8
20260507093705 14 113 3.2 9.7 0.00 0.00 0.00 45 1015.7
20260507092705 14 118 9.7 16.1 0.00 0.00 0.00 47 1015.6
20260507092205 14 89 8.0 14.5 0.00 0.00 0.00 49 1015.6
20260507091705 14 71 8.0 12.9 0.00 0.00 0.00 49 1015.6
20260507091205 14 81 4.8 11.3 0.00 0.00 0.00 49 1015.6
20260507090705 14 63 9.7 19.3 0.00 0.00 0.00 49 1015.6
20260507085705 14 99 8.0 12.9 0.00 0.00 0.00 52 1015.5
20260507085205 13 77 8.0 14.5 0.00 0.00 0.00 56 1015.5
20260507084705 13 102 1.6 11.3 0.00 0.00 0.00 56 1015.4
20260507084205 13 145 8.0 14.5 0.00 0.00 0.00 59 1015.4
20260507082705 12 104 8.0 14.5 0.00 0.00 0.00 58 1015.3
20260507082205 12 102 6.4 14.5 0.00 0.00 0.00 63 1015.3
20260507081705 13 121 8.0 14.5 0.00 0.00 0.00 66 1015.2
20260507081205 12 90 8.0 19.3 0.00 0.00 0.00 67 1015.2
20260507080705 12 51 6.4 19.3 0.00 0.00 0.00 69 1015.1
20260507080205 12 94 6.4 9.7 0.00 0.00 0.00 69 1015.1
20260507075705 12 135 8.0 14.5 0.00 0.00 0.00 70 1015.1
20260507074705 12 114 6.4 12.9 0.00 0.00 0.00 71 1015.0
20260507073705 11 80 4.8 12.9 0.00 0.00 0.00 73 1014.9
20260507073205 11 120 6.4 14.5 0.00 0.00 0.00 72 1014.9
20260507072704 11 90 8.0 14.5 0.00 0.00 0.00 72 1015.0
20260507072205 11 109 4.8 14.5 0.00 0.00 0.00 76 1015.0
20260507071705 11 127 6.4 11.3 0.00 0.00 0.00 75 1015.0
20260507070205 11 82 8.0 14.5 0.00 0.00 0.00 78 1014.9
20260507065705 10 99 8.0 12.9 0.00 0.00 0.00 78 1014.9
20260507065205 10 122 8.0 12.9 0.00 0.00 0.00 80 1014.9
20260507064704 10 83 4.8 14.5 0.00 0.00 0.00 80 1014.8
20260507063704 10 94 6.4 12.9 0.00 0.00 0.00 81 1014.8
20260507063205 10 82 4.8 12.9 0.00 0.00 0.00 82 1014.7
20260507062705 10 113 4.8 9.7 0.00 0.00 0.00 84 1014.7
20260507062205 10 96 3.2 9.7 0.00 0.00 0.00 85 1014.6
20260507061705 9 126 4.8 9.7 0.00 0.00 0.00 85 1014.5
20260507061205 9 92 4.8 11.3 0.00 0.00 0.00 86 1014.5
20260507060705 9 100 4.8 9.7 0.00 0.00 0.00 87 1014.5
20260507055704 8 91 6.4 11.3 0.00 0.00 0.00 89 1014.5
20260507055205 8 92 4.8 8.0 0.00 0.00 0.00 90 1014.4
20260507054704 8 91 6.4 9.7 0.00 0.00 0.00 91 1014.4
20260507054204 8 80 4.8 11.3 0.00 0.00 0.00 92 1014.4
20260507053704 7 92 3.2 4.8 0.00 0.00 0.00 93 1014.4
20260507053205 7 96 3.2 4.8 0.00 0.00 0.00 94 1014.3
20260507052205 7 96 1.6 4.8 0.00 0.00 0.00 95 1014.3
20260507051705 6 96 1.6 4.8 0.00 0.00 0.00 95 1014.3
20260507051205 6 96 3.2 4.8 0.00 0.00 0.00 96 1014.2
20260507050705 6 96 3.2 4.8 0.00 0.00 0.00 96 1014.2
20260507050205 6 99 3.2 4.8 0.00 0.00 0.00 96 1014.1
20260507045705 6 101 0.0 3.2 0.00 0.00 0.00 97 1014.1
20260507045205 5 101 3.2 4.8 0.00 0.00 0.00 97 1014.0
20260507044705 5 103 3.2 4.8 0.00 0.00 0.00 97 1014.0
20260507044205 5 106 3.2 4.8 0.00 0.00 0.00 97 1014.0
20260507043705 4 116 1.6 4.8 0.00 0.00 0.00 97 1013.9
20260507042205 2 117 0.0 0.0 0.00 0.00 0.00 95 1013.7
20260507041705 2 117 0.0 0.0 0.00 0.00 0.00 95 1013.7
20260507041205 2 117 0.0 0.0 0.00 0.00 0.00 95 1013.6
20260507040706 2 117 0.0 0.0 0.00 0.00 0.00 95 1013.6
20260507034705 2 117 0.0 0.0 0.00 0.00 0.00 94 1013.4
20260507034205 2 117 0.0 0.0 0.00 0.00 0.00 94 1013.4
20260507033706 2 117 0.0 0.0 0.00 0.00 0.00 94 1013.3
20260507032705 2 117 0.0 0.0 0.00 0.00 0.00 94 1013.3
20260507032204 2 117 0.0 0.0 0.00 0.00 0.00 94 1013.2
20260507031705 2 117 0.0 0.0 0.00 0.00 0.00 94 1013.2
20260507031205 2 117 0.0 0.0 0.00 0.00 0.00 94 1013.2
20260507030705 2 117 0.0 0.0 0.00 0.00 0.00 94 1013.1
20260507030205 2 117 0.0 0.0 0.00 0.00 0.00 94 1013.1
20260507025205 2 117 0.0 0.0 0.00 0.00 0.00 94 1013.0
20260507024205 2 117 0.0 0.0 0.00 0.00 0.00 94 1013.0
20260507023705 3 117 0.0 0.0 0.00 0.00 0.00 94 1012.9
20260507022705 3 117 0.0 0.0 0.00 0.00 0.00 94 1012.9
20260507022205 3 117 0.0 0.0 0.00 0.00 0.00 94 1012.9
20260507021705 3 117 0.0 0.0 0.00 0.00 0.00 94 1012.8
20260507021205 3 117 0.0 0.0 0.00 0.00 0.00 93 1012.8
20260507020705 3 117 0.0 0.0 0.00 0.00 0.00 94 1012.7
20260507020204 3 117 0.0 0.0 0.00 0.00 0.00 93 1012.8
20260507015705 3 117 0.0 0.0 0.00 0.00 0.00 93 1012.7
20260507015205 3 117 0.0 0.0 0.00 0.00 0.00 93 1012.7
20260507014705 3 117 0.0 0.0 0.00 0.00 0.00 93 1012.7
20260507014205 3 117 0.0 0.0 0.00 0.00 0.00 93 1012.6
20260507013205 3 117 0.0 0.0 0.00 0.00 0.00 93 1012.5
20260506233205 5 118 0.0 0.0 0.00 0.00 0.00 91 1012.3
20260506225204 6 118 0.0 0.0 0.00 0.00 0.00 89 1012.1
20260506224205 6 118 1.6 3.2 0.00 0.00 0.00 88 1012.0
20260506223705 6 118 1.6 3.2 0.00 0.00 0.00 88 1012.0
20260506223205 6 118 1.6 3.2 0.00 0.00 0.00 88 1012.1
20260506222705 6 118 1.6 4.8 0.00 0.00 0.00 88 1012.0
20260506222205 7 118 3.2 4.8 0.00 0.00 0.00 88 1012.0
20260506221705 7 118 3.2 4.8 0.00 0.00 0.00 88 1012.0
20260506221205 7 118 3.2 4.8 0.00 0.00 0.00 87 1012.0
20260506220205 7 119 3.2 9.7 0.00 0.00 0.00 87 1012.0
20260506215705 7 133 3.2 8.0 0.00 0.00 0.00 87 1011.9
20260506215205 7 126 4.8 11.3 0.00 0.00 0.00 88 1011.9
20260506214705 7 125 6.4 11.3 0.00 0.00 0.00 88 1011.8
20260506214204 7 113 4.8 11.3 0.00 0.00 0.00 88 1011.9
20260506213705 7 104 4.8 8.0 0.00 0.00 0.00 88 1011.8
20260506213204 7 125 4.8 8.0 0.00 0.00 0.00 87 1011.7
20260506212705 7 105 3.2 4.8 0.00 0.00 0.00 87 1011.7
20260506211705 7 104 3.2 4.8 0.00 0.00 0.00 87 1011.5
20260506211205 7 103 3.2 4.8 0.00 0.00 0.00 87 1011.5
20260506210705 7 97 3.2 4.8 0.00 0.00 0.00 86 1011.5
20260506210205 8 97 3.2 4.8 0.00 0.00 0.00 85 1011.5
20260506205705 8 96 3.2 4.8 0.00 0.00 0.00 84 1011.4
20260506205205 8 96 1.6 3.2 0.00 0.00 0.00 84 1011.4
20260506204705 8 96 1.6 3.2 0.00 0.00 0.00 83 1011.3
20260506204205 8 96 1.6 3.2 0.00 0.00 0.00 82 1011.3
20260506203704 8 96 1.6 3.2 0.00 0.00 0.00 81 1011.3
20260506202706 8 96 3.2 4.8 0.00 0.00 0.00 80 1011.2
20260506202205 8 96 3.2 4.8 0.00 0.00 0.00 79 1011.1
20260506201705 9 96 3.2 4.8 0.00 0.00 0.00 78 1011.1
20260506201205 9 96 3.2 4.8 0.00 0.00 0.00 77 1011.1
20260506200705 9 86 3.2 4.8 0.00 0.00 0.00 77 1011.0
20260506200204 9 84 3.2 4.8 0.00 0.00 0.00 76 1010.9
20260506195705 9 86 1.6 4.8 0.00 0.00 0.00 75 1011.0
20260506193705 10 86 3.2 4.8 0.00 0.00 0.00 73 1010.8
20260506193204 10 91 4.8 11.3 0.00 0.00 0.00 72 1010.8
20260506191704 11 92 3.2 4.8 0.00 0.00 0.00 70 1010.6
20260506191205 11 92 3.2 4.8 0.00 0.00 0.00 70 1010.5
20260506190705 11 95 3.2 4.8 0.00 0.00 0.00 69 1010.4
20260506190205 11 96 3.2 4.8 0.00 0.00 0.00 68 1010.4
20260506185705 11 94 3.2 4.8 0.00 0.00 0.00 68 1010.3
20260506185205 11 96 4.8 8.0 0.00 0.00 0.00 67 1010.3
20260506184704 11 78 4.8 8.0 0.00 0.00 0.00 67 1010.2
20260506184205 12 101 3.2 4.8 0.00 0.00 0.00 66 1010.1
20260506183704 12 101 3.2 4.8 0.00 0.00 0.00 66 1010.1
20260506183205 12 102 3.2 9.7 0.00 0.00 0.00 66 1010.1
20260506182705 12 96 3.2 12.9 0.00 0.00 0.00 65 1009.9
20260506182205 12 87 6.4 11.3 0.00 0.00 0.00 65 1010.0
20260506181704 12 86 4.8 11.3 0.00 0.00 0.00 65 1009.9
20260506180705 12 84 6.4 12.9 0.00 0.00 0.00 65 1009.9
20260506180204 12 100 6.4 11.3 0.00 0.00 0.00 66 1009.8
20260506175705 12 104 4.8 9.7 0.00 0.00 0.00 67 1009.8
20260506175205 12 117 4.8 12.9 0.00 0.00 0.00 67 1009.8
20260506174705 12 148 6.4 11.3 0.00 0.00 0.00 67 1009.8
20260506174204 12 102 8.0 14.5 0.00 0.00 0.00 66 1009.7
20260506173704 13 108 6.4 14.5 0.00 0.00 0.00 66 1009.7
20260506173205 13 115 8.0 12.9 0.00 0.00 0.00 64 1009.6
20260506172705 13 90 4.8 9.7 0.00 0.00 0.00 60 1009.6
20260506171204 13 74 6.4 14.5 0.00 0.00 0.00 53 1009.4
20260506170705 13 58 4.8 11.3 0.00 0.00 0.00 53 1009.4
20260506170205 13 39 8.0 14.5 0.00 0.00 0.00 52 1009.4
20260506165704 13 49 8.0 16.1 0.00 0.00 0.00 52 1009.3
20260506164705 14 70 6.4 12.9 0.00 0.00 0.00 50 1009.3
20260506164205 14 43 8.0 19.3 0.00 0.00 0.00 49 1009.3
20260506163704 14 54 4.8 19.3 0.00 0.00 0.00 50 1009.4
20260506163204 14 49 8.0 19.3 0.00 0.00 0.00 50 1009.4
20260506162705 14 72 8.0 19.3 0.00 0.00 0.00 49 1009.4
20260506162205 14 60 9.7 16.1 0.00 0.00 0.00 50 1009.5
20260506161704 14 78 8.0 14.5 0.00 0.00 0.00 50 1009.5